TimeCST,TemperatureF,Dew PointF,Humidity,Sea Level PressureIn,VisibilityMPH,Wind Direction,Wind SpeedMPH,Gust SpeedMPH,PrecipitationIn,Events,Conditions,WindDirDegrees,DateUTC
12:33 AM,24.8,19.4,80,30.26,10.0,NW,13.8,-,N/A,,Overcast,320,2013-03-06 06:33:00
12:53 AM,23.0,19.0,85,30.30,10.0,NW,12.7,-,N/A,,Overcast,320,2013-03-06 06:53:00
1:53 AM,23.0,18.0,81,30.34,10.0,NW,13.8,-,N/A,,Overcast,320,2013-03-06 07:53:00
2:53 AM,19.9,16.0,85,30.35,10.0,NW,18.4,-,N/A,,Overcast,320,2013-03-06 08:53:00
3:15 AM,19.4,15.8,86,30.32,10.0,NW,15.0,-,N/A,,Overcast,320,2013-03-06 09:15:00
3:37 AM,15.8,12.2,86,30.33,10.0,NW,11.5,-,N/A,,Scattered Clouds,320,2013-03-06 09:37:00
3:53 AM,15.1,10.9,84,30.38,10.0,NW,10.4,-,N/A,,Mostly Cloudy,320,2013-03-06 09:53:00
4:53 AM,18.0,14.0,84,30.39,10.0,NW,10.4,-,N/A,,Overcast,320,2013-03-06 10:53:00
5:53 AM,19.9,15.1,81,30.40,10.0,NW,11.5,-,N/A,,Overcast,320,2013-03-06 11:53:00
6:53 AM,19.9,15.1,81,30.42,10.0,NW,13.8,-,N/A,,Overcast,310,2013-03-06 12:53:00
7:53 AM,19.9,15.1,81,30.42,10.0,NNW,11.5,-,N/A,,Overcast,330,2013-03-06 13:53:00
8:53 AM,19.9,16.0,85,30.43,10.0,NNW,11.5,-,N/A,,Overcast,330,2013-03-06 14:53:00
9:53 AM,21.9,16.0,78,30.43,10.0,NNW,12.7,-,N/A,,Overcast,340,2013-03-06 15:53:00
10:00 AM,21.2,15.8,80,30.39,10.0,NNW,12.7,-,N/A,,Overcast,340,2013-03-06 16:00:00
10:53 AM,23.0,16.0,74,30.44,10.0,NNW,13.8,-,N/A,,Overcast,340,2013-03-06 16:53:00
11:53 AM,23.0,16.0,74,30.43,10.0,NNW,11.5,-,N/A,,Overcast,330,2013-03-06 17:53:00
12:53 PM,24.1,16.0,71,30.41,10.0,NNE,9.2,-,N/A,,Overcast,20,2013-03-06 18:53:00
1:42 PM,24.8,15.8,69,30.35,10.0,NNW,5.8,-,N/A,,Overcast,340,2013-03-06 19:42:00
1:53 PM,24.1,16.0,71,30.40,10.0,NNW,6.9,-,N/A,,Overcast,330,2013-03-06 19:53:00
2:53 PM,24.1,16.0,71,30.39,10.0,NW,6.9,-,N/A,,Overcast,320,2013-03-06 20:53:00
3:53 PM,23.0,16.0,74,30.40,10.0,NW,9.2,-,N/A,,Overcast,310,2013-03-06 21:53:00
4:53 PM,19.9,14.0,78,30.39,10.0,NW,8.1,-,N/A,,Scattered Clouds,320,2013-03-06 22:53:00
5:53 PM,17.1,12.0,81,30.39,10.0,NNW,6.9,-,N/A,,Partly Cloudy,330,2013-03-06 23:53:00
6:29 PM,15.8,10.4,79,30.35,10.0,WNW,5.8,-,N/A,,Mostly Cloudy,290,2013-03-07 00:29:00
6:53 PM,18.0,12.9,81,30.39,10.0,NNW,5.8,-,N/A,,Overcast,330,2013-03-07 00:53:00
7:34 PM,14.0,10.4,86,30.33,10.0,NNW,5.8,-,N/A,,Partly Cloudy,340,2013-03-07 01:34:00
7:53 PM,12.9,9.0,84,30.39,9.0,NW,5.8,-,N/A,,Clear,320,2013-03-07 01:53:00
8:53 PM,8.1,5.0,87,30.39,8.0,NNW,4.6,-,N/A,,Clear,330,2013-03-07 02:53:00
9:02 PM,10.4,5.0,79,30.33,1.8,NW,4.6,-,N/A,,Haze,320,2013-03-07 03:02:00
9:11 PM,8.6,3.2,79,30.33,3.0,NW,4.6,-,N/A,,Clear,320,2013-03-07 03:11:00
9:35 PM,8.6,5.0,85,30.33,1.8,Calm,Calm,-,N/A,,Partly Cloudy,0,2013-03-07 03:35:00
9:45 PM,8.6,5.0,85,30.33,4.0,Calm,Calm,-,N/A,,Clear,0,2013-03-07 03:45:00
9:53 PM,6.1,3.0,87,30.39,8.0,Calm,Calm,-,N/A,,Clear,0,2013-03-07 03:53:00
10:44 PM,5.0,1.4,85,30.33,1.8,Calm,Calm,-,N/A,,Clear,0,2013-03-07 04:44:00
10:53 PM,3.0,-0.9,84,30.40,2.0,Calm,Calm,-,N/A,,Clear,0,2013-03-07 04:53:00
11:05 PM,6.8,1.4,79,30.33,3.0,NW,3.5,-,N/A,,Clear,310,2013-03-07 05:05:00
11:28 PM,1.4,-2.2,85,30.33,8.0,NNW,3.5,-,N/A,,Scattered Clouds,340,2013-03-07 05:28:00
11:37 PM,3.2,-2.2,78,30.33,5.0,Calm,Calm,-,N/A,,Haze,0,2013-03-07 05:37:00
11:44 PM,5.0,1.4,85,30.33,1.2,NNW,3.5,-,N/A,,Mostly Cloudy,340,2013-03-07 05:44:00
11:46 PM,5.0,1.4,85,30.33,0.8,NNW,3.5,-,N/A,,Mist,340,2013-03-07 05:46:00
11:53 PM,5.0,3.0,92,30.40,0.2,NNW,3.5,-,N/A,Fog,Light Freezing Fog,340,2013-03-07 05:53:00